Terug naar catalogus

MOLNIYA 3-27

ActiefCommunicatieHEO
NORAD 16393·PAYLOAD·🇷🇺 Russia

Gelanceerd Dec 24, 1985 vanaf Plesetsk Cosmodrome

Loading…

Volgende Passages (komende 24 uur)

TLE

VersSource: Space-Track

Epoch: Sep 9, 2026, 20:43 UTC

1 16393U 85117A   26252.86370023  .00000117  00000-0 -71667-2 0  9999
2 16393  61.9256 211.9399 7111296 253.0913  23.4957  2.12409016307002

Volg MOLNIYA 3-27 in realtime met AllMySat

Download on the App Store